User: anonymous
Location: Albany
(35.0000°S, 118.0000°E)
Time: 05:07:38
(UTC-04:00)
Language:

Cosmos 1933 - Orbit

View from above orbital plane
View from above orbital plane
View from above satellite
View from above satellite

Ground track
Ground track

The orbit data is extracted from the following two-line orbital elements,

1 18958U 88020A   14206.03509084  .00000241  00000-0  16863-4 0  3743
2 18958 082.5288 043.5026 0010699 276.2319 083.7686 15.00650013432650
Epoch (UTC): 25 July 2014 00:50:31
Eccentricity: 0.0010699
inclination: 82.5288°
perigee height: 557 km
apogee height: 572 km
right ascension of ascending node: 43.5026°
argument of perigee: 276.2319°
revolutions per day: 15.00650013
mean anomaly at epoch: 83.7686°
orbit number at epoch: 43265

The dashed part of the orbit path shows where the satellite is in the earth's shadow,  

DLR